{"data":{"norad_id":67634,"intl_designator":"2026-020T","name":"STARLINK-36617","alt_names":[],"object_type":"PAYLOAD","status":"ACTIVE","operator":null,"country":"US","launch_date":"2026-01-30","launch_site_code":"AFETR","launch_vehicle":null,"mission":null,"orbit_class":"UNKNOWN","rcs_meters":null,"size_class":null,"mass_kg":null,"dimensions":null,"purposes":["comms"],"wikipedia_slug":null,"has_3d_model":false,"image_url":null,"decayed_at":null,"tle_current":{"epoch":"2026-09-19T22:07:42.967776Z","epoch_age_seconds":118918,"freshness":"FRESH","line1":"1 67634U 26020T   26262.92202509  .00019438  00000+0  71369-3 0  9996","line2":"2 67634  43.0009 123.3178 0001172 275.5234  84.5484 15.27595374 35816","mean_motion":15.27595374,"eccentricity":0.0001172,"inclination_deg":43.0009,"raan_deg":123.3178,"arg_perigee_deg":275.5234,"mean_anomaly_deg":84.5484,"bstar":0.00071369,"rev_number":3581,"period_min":94.265799995804,"perigee_km":482.19893552381,"apogee_km":483.80718675414,"semimajor_km":6861.140061139,"source":"CELESTRAK","updated_at":"2026-09-20T09:00:43.614458Z"}}}